Weather History for ETAR - October, 2012

Change the Weather History Date:

Sunday, October 7, 2012

  Actual Average Record
Temperature  
Mean Temperature 46 °F -  
Max Temperature 57 °F 60 °F 66 °F (2008)
Min Temperature 35 °F 41 °F 34 °F (2007)
Degree Days  
Heating Degree Days 19    
Moisture  
Dew Point 47 °F    
Average Humidity 88    
Maximum Humidity 100    
Minimum Humidity 54    
Precipitation  
Precipitation 0.36 in - - ()
Sea Level Pressure  
Sea Level Pressure 30.02 in    
Wind  
Wind Speed 5 mph ()    
Max Wind Speed 14 mph    
Max Gust Speed 18 mph    
Visibility 6.0 miles    
Events Rain    
Averages and records for this station are not official NWS values.
T = Trace of Precipitation, MM = Missing Value Source: Averaged Metar Reports

Daily Weather History Graph

Daily Weather History Graph

Search for Another Location

Airport or City:

Trip Planner

Search our weather history database for the weather conditions in past years. The results will help you decide how hot, cold, wet, or windy it might be!

Date:

Astronomy

Oct. 07, 2012 Rise Set
Actual Time 7:38 AM CEST 6:54 PM CEST
Civil Twilight 7:06 AM CEST 7:26 PM CEST
Nautical Twilight 6:29 AM CEST 8:03 PM CEST
Astronomical Twilight 5:52 AM CEST 8:41 PM CEST
Moon 11:28 PM CEST 2:28 PM CEST
Length of Visible Light 12h 19m
Length of Day
11h 16m
Waning Gibbous, 58% of the Moon is Illuminated
Oct 7
Waning Gibbous
Oct 8
Last Quarter
Oct 15
New
Oct 22
First Quarter
Oct 29
Full

Hourly Weather History & Observations

Time (CEST) Temp. Windchill Dew Point Humidity Pressure Visibility Wind Dir Wind Speed Gust Speed Precip Events Conditions
12:13 AM 57.2 °F - 53.6 °F 88% 29.95 in 6.2 mi West 6.9 mph - N/A   Light Drizzle
12:23 AM 57.2 °F - 53.6 °F 88% 29.94 in 6.2 mi WSW 3.5 mph - N/A   Mostly Cloudy
12:29 AM 57.2 °F - 53.6 °F 88% 29.94 in 6.2 mi WSW 3.5 mph - N/A   Light Drizzle
12:41 AM 55.4 °F - 53.6 °F 94% 29.94 in 6.2 mi West 3.5 mph - N/A   Mostly Cloudy
12:57 AM 55.4 °F - 53.6 °F 94% 29.94 in 6.2 mi West 6.9 mph - N/A Rain Light Rain
12:58 AM 55.9 °F - 54.0 °F 93% 29.94 in 6.2 mi West 6.9 mph - 0.00 in Rain Light Rain
1:27 AM 55.4 °F - 53.6 °F 94% 29.94 in - WSW 3.5 mph - N/A Rain Light Rain
1:28 AM 55.4 °F - 53.6 °F 94% 29.94 in - WSW 2.3 mph - N/A Rain Light Rain
1:29 AM 55.4 °F - 53.6 °F 94% 29.94 in - WSW 3.5 mph - N/A Rain Light Rain
1:30 AM 55.4 °F - 53.6 °F 94% 29.94 in - WSW 3.5 mph - N/A Rain Light Rain
1:31 AM 55.4 °F - 53.6 °F 94% 29.94 in - WSW 3.5 mph - N/A Rain Light Rain
1:32 AM 55.4 °F - 53.6 °F 94% 29.94 in - WSW 3.5 mph - N/A Rain Light Rain
1:33 AM 55.4 °F - 53.6 °F 94% 29.94 in 3.7 mi WSW 3.5 mph - N/A Rain Rain
1:34 AM 55.4 °F - 53.6 °F 94% 29.94 in 3.7 mi WSW 3.5 mph - N/A Rain Rain
1:39 AM 55.4 °F - 53.6 °F 94% 29.94 in 3.7 mi West 4.6 mph - N/A Rain Light Rain
1:49 AM 55.4 °F - 55.4 °F 100% 29.94 in 5.6 mi WSW 5.8 mph - N/A Rain Light Rain
1:52 AM 55.4 °F - 53.6 °F 94% 29.94 in 5.6 mi WSW 4.6 mph - N/A Rain Light Rain
1:53 AM 55.4 °F - 53.6 °F 94% 29.94 in 5.6 mi WSW 4.6 mph - N/A Rain Light Rain
1:58 AM 55.9 °F - 54.3 °F 94% 29.93 in 5.6 mi SW 5.8 mph - 0.07 in Rain Light Rain
2:02 AM 55.4 °F - 53.6 °F 94% 29.93 in 5.6 mi WSW 5.8 mph - N/A Rain Light Rain
2:05 AM 55.4 °F - 53.6 °F 94% 29.93 in 6.2 mi SW 3.5 mph - N/A Rain Light Rain
2:58 AM 56.1 °F - 54.3 °F 94% 29.92 in 5.6 mi WSW 4.6 mph - 0.04 in Rain Light Rain
3:00 AM 55.4 °F - 53.6 °F 94% 29.92 in 6.2 mi WSW 3.5 mph - N/A Rain Light Rain
3:02 AM 55.4 °F - 53.6 °F 94% 29.92 in 6.2 mi WSW 4.6 mph - N/A Rain Light Rain
3:16 AM 55.4 °F - 53.6 °F 94% 29.91 in 6.2 mi WSW 4.6 mph - N/A Rain Light Rain
3:19 AM 55.4 °F - 53.6 °F 94% 29.91 in 6.2 mi WSW 4.6 mph - N/A   Light Drizzle
3:25 AM 55.4 °F - 53.6 °F 94% 29.91 in 6.2 mi WSW 3.5 mph - N/A   Overcast
3:26 AM 55.4 °F - 53.6 °F 94% 29.91 in 6.2 mi WSW 4.6 mph - N/A   Overcast
3:32 AM 55.4 °F - 53.6 °F 94% 29.91 in 6.2 mi WSW 4.6 mph - N/A   Light Drizzle
3:46 AM 55.4 °F - 53.6 °F 94% 29.90 in 6.2 mi WSW 4.6 mph - N/A   Overcast
3:49 AM 57.2 °F - 53.6 °F 88% 29.90 in 6.2 mi SW 5.8 mph - N/A   Overcast
3:55 AM 57.2 °F - 53.6 °F 88% 29.90 in 6.2 mi WSW 6.9 mph - N/A   Overcast
3:58 AM 56.5 °F - 54.3 °F 92% 29.90 in 6.2 mi SW 6.9 mph - 0.00 in   Overcast
4:06 AM 57.2 °F - 53.6 °F 88% 29.90 in 6.2 mi SW 8.1 mph - N/A   Overcast
4:12 AM 57.2 °F - 53.6 °F 88% 29.89 in 6.2 mi SW 6.9 mph - N/A Rain Light Rain
4:13 AM 57.2 °F - 53.6 °F 88% 29.89 in 6.2 mi SW 6.9 mph - N/A Rain Light Rain
4:28 AM 57.2 °F - 53.6 °F 88% 29.89 in 6.2 mi WSW 6.9 mph - N/A   Overcast
4:30 AM 57.2 °F - 53.6 °F 88% 29.89 in 6.2 mi WSW 5.8 mph - N/A   Overcast
4:58 AM 56.8 °F - 53.6 °F 89% 29.89 in 6.2 mi WSW 10.4 mph - 0.01 in   Overcast
5:24 AM 57.2 °F - 53.6 °F 88% 29.89 in 6.2 mi WSW 5.8 mph - N/A   Overcast
5:32 AM 57.2 °F - 53.6 °F 88% 29.89 in 6.2 mi West 6.9 mph - N/A   Overcast
5:40 AM 57.2 °F - 53.6 °F 88% 29.89 in 6.2 mi West 8.1 mph - N/A   Overcast
5:44 AM 57.2 °F - 53.6 °F 88% 29.88 in 6.2 mi WSW 8.1 mph - N/A   Overcast
5:53 AM 57.2 °F - 53.6 °F 88% 29.88 in 6.2 mi West 10.4 mph - N/A   Overcast
5:58 AM 56.3 °F - 53.8 °F 91% 29.88 in 6.2 mi West 10.4 mph - N/A   Overcast
6:02 AM 57.2 °F - 53.6 °F 88% 29.89 in 6.2 mi West 10.4 mph - N/A Rain Light Rain
6:06 AM 55.4 °F - 53.6 °F 94% 29.89 in 6.2 mi West 8.1 mph - N/A Rain Light Rain
6:18 AM 55.4 °F - 53.6 °F 94% 29.90 in 6.2 mi NW 6.9 mph - N/A   Light Drizzle
6:26 AM 53.6 °F - 51.8 °F 94% 29.90 in 6.2 mi North 13.8 mph 18.4 mph N/A Rain Light Rain
6:35 AM 51.8 °F - 50.0 °F 94% 29.91 in 5.6 mi North 12.7 mph - N/A Rain Rain
6:36 AM 51.8 °F - 50.0 °F 94% 29.91 in 6.2 mi North 11.5 mph - N/A Rain Rain
6:37 AM 51.8 °F - 50.0 °F 94% 29.91 in 6.2 mi North 10.4 mph - N/A Rain Rain
6:40 AM 51.8 °F - 50.0 °F 94% 29.91 in 6.2 mi NNE 10.4 mph - N/A Rain Rain
6:58 AM 50.5 °F - 48.4 °F 92% 29.94 in 5.0 mi NNE 10.4 mph - 0.10 in Rain Rain
7:02 AM 50.0 °F - 48.2 °F 94% 29.93 in - NNE 10.4 mph - N/A Rain Heavy Rain
7:03 AM 50.0 °F - 48.2 °F 94% 29.94 in - North 8.1 mph - N/A Rain Heavy Rain
7:04 AM 50.0 °F - 48.2 °F 94% 29.94 in - Variable 5.8 mph - N/A Rain Heavy Rain
7:05 AM 50.0 °F - 48.2 °F 94% 29.94 in - NNE 5.8 mph - N/A Rain Heavy Rain
7:06 AM 50.0 °F - 48.2 °F 94% 29.94 in 3.7 mi NNE 4.6 mph - N/A Rain Heavy Rain
7:18 AM 50.0 °F - 48.2 °F 94% 29.94 in 5.6 mi NNE 10.4 mph - N/A Rain Light Rain
7:35 AM 50.0 °F - 46.4 °F 87% 29.96 in 6.2 mi NE 6.9 mph - N/A Rain Light Rain
7:41 AM 50.0 °F - 46.4 °F 87% 29.96 in 6.2 mi NNE 5.8 mph - N/A Rain Light Rain
7:46 AM 48.2 °F - 46.4 °F 93% 29.97 in 6.2 mi Variable 3.5 mph - N/A   Light Drizzle
7:52 AM 48.2 °F - 46.4 °F 93% 29.97 in 6.2 mi Variable 3.5 mph - N/A   Overcast
7:54 AM 48.2 °F - 46.4 °F 93% 29.97 in 6.2 mi North 5.8 mph - N/A   Overcast
7:58 AM 48.2 °F - 46.4 °F 93% 29.98 in 6.2 mi NNE 8.1 mph - 0.10 in   Overcast
8:03 AM 48.2 °F - 46.4 °F 93% 29.97 in 6.2 mi NNE 4.6 mph - N/A   Overcast
8:10 AM 48.2 °F - 46.4 °F 93% 29.97 in 6.2 mi NE 6.9 mph - N/A   Overcast
8:14 AM 48.2 °F - 46.4 °F 93% 29.98 in 6.2 mi NE 6.9 mph - N/A   Overcast
8:16 AM 48.2 °F - 46.4 °F 93% 29.98 in 6.2 mi NE 5.8 mph - N/A   Overcast
8:20 AM 48.2 °F - 46.4 °F 93% 29.98 in 6.2 mi Variable 6.9 mph - N/A   Overcast
8:21 AM 48.2 °F - 46.4 °F 93% 29.98 in 6.2 mi NNE 8.1 mph - N/A   Overcast
8:24 AM 48.2 °F - 46.4 °F 93% 29.99 in 6.2 mi NNE 6.9 mph - N/A   Overcast
8:26 AM 48.2 °F - 46.4 °F 93% 29.99 in 6.2 mi NNE 6.9 mph - N/A Rain Light Rain
8:33 AM 48.2 °F - 44.6 °F 87% 29.99 in 6.2 mi NNE 6.9 mph - N/A Rain Rain
8:58 AM 48.0 °F - 45.1 °F 90% 30.02 in 6.2 mi NNE 4.6 mph - 0.03 in Rain Light Rain
9:05 AM 48.2 °F - 44.6 °F 87% 30.01 in 6.2 mi NNE 3.5 mph - N/A   Overcast
9:48 AM 48.2 °F - 46.4 °F 93% 30.04 in 6.2 mi NNE 4.6 mph - N/A   Mostly Cloudy
9:58 AM 49.1 °F - 46.0 °F 89% 30.05 in 6.2 mi NNE 4.6 mph - 0.00 in   Mostly Cloudy
10:02 AM 50.0 °F - 46.4 °F 87% 30.05 in 6.2 mi North 3.5 mph - N/A   Mostly Cloudy
10:03 AM 50.0 °F - 46.4 °F 87% 30.05 in 6.2 mi North 3.5 mph - N/A   Mostly Cloudy
10:05 AM 50.0 °F - 46.4 °F 87% 30.05 in 6.2 mi North 1.2 mph - N/A   Mostly Cloudy
10:08 AM 50.0 °F - 46.4 °F 87% 30.05 in 6.2 mi Variable 4.6 mph - N/A   Overcast
10:09 AM 50.0 °F - 46.4 °F 87% 30.05 in 6.2 mi North 5.8 mph - N/A   Overcast
10:10 AM 50.0 °F - 46.4 °F 87% 30.05 in 6.2 mi North 5.8 mph - N/A   Overcast
10:24 AM 50.0 °F - 46.4 °F 87% 30.05 in 6.2 mi NE 4.6 mph - N/A   Mostly Cloudy
10:26 AM 50.0 °F - 46.4 °F 87% 30.05 in 6.2 mi NE 4.6 mph - N/A   Mostly Cloudy
10:27 AM 50.0 °F - 46.4 °F 87% 30.05 in 6.2 mi NE 3.5 mph - N/A   Mostly Cloudy
10:29 AM 50.0 °F - 46.4 °F 87% 30.05 in 6.2 mi NNE 2.3 mph - N/A   Mostly Cloudy
10:35 AM 50.0 °F - 46.4 °F 87% 30.06 in 6.2 mi NNE 4.6 mph - N/A   Mostly Cloudy
10:36 AM 50.0 °F - 46.4 °F 87% 30.05 in 6.2 mi NNE 4.6 mph - N/A   Mostly Cloudy
10:37 AM 50.0 °F - 46.4 °F 87% 30.06 in 6.2 mi NNE 4.6 mph - N/A   Mostly Cloudy
10:39 AM 50.0 °F - 46.4 °F 87% 30.06 in 6.2 mi North 3.5 mph - N/A   Mostly Cloudy
10:40 AM 50.0 °F - 46.4 °F 87% 30.06 in 6.2 mi North 3.5 mph - N/A   Mostly Cloudy
10:58 AM 50.9 °F - 45.9 °F 83% 30.09 in 6.2 mi NE 4.6 mph - N/A   Scattered Clouds
11:08 AM 50.0 °F - 46.4 °F 87% 30.07 in 6.2 mi NNE 5.8 mph - N/A   Mostly Cloudy
11:12 AM 50.0 °F - 44.6 °F 82% 30.07 in 6.2 mi NE 4.6 mph - N/A   Scattered Clouds
11:32 AM 51.8 °F - 44.6 °F 76% 30.09 in 6.2 mi North 10.4 mph - N/A   Mostly Cloudy
11:36 AM 51.8 °F - 44.6 °F 76% 30.09 in 6.2 mi North 8.1 mph - N/A   Mostly Cloudy
11:58 AM 53.8 °F - 44.2 °F 70% 30.11 in 6.2 mi Variable 6.9 mph - 0.01 in   Scattered Clouds
12:09 PM 55.4 °F - 44.6 °F 67% 30.10 in 6.2 mi Variable 6.9 mph - N/A   Mostly Cloudy
12:25 PM 53.6 °F - 44.6 °F 72% 30.11 in 6.2 mi North 6.9 mph - N/A   Overcast
12:29 PM 51.8 °F - 44.6 °F 76% 30.11 in 6.2 mi North 4.6 mph - N/A   Mostly Cloudy
12:30 PM 51.8 °F - 44.6 °F 76% 30.11 in 6.2 mi North 5.8 mph - N/A   Mostly Cloudy
12:53 PM 53.6 °F - 42.8 °F 67% 30.11 in 6.2 mi North 8.1 mph - N/A   Mostly Cloudy
12:58 PM 53.8 °F - 42.8 °F 66% 30.13 in 6.2 mi North 5.8 mph - N/A   Mostly Cloudy
1:03 PM 53.6 °F - 42.8 °F 67% 30.12 in 6.2 mi North 6.9 mph - N/A   Mostly Cloudy
1:58 PM 54.7 °F - 41.7 °F 62% 30.14 in 6.2 mi NNW 6.9 mph - N/A   Mostly Cloudy
2:58 PM 55.0 °F - 40.8 °F 59% 30.16 in 6.2 mi North 4.6 mph - N/A   Scattered Clouds
3:58 PM 55.9 °F - 40.1 °F 55% 30.17 in 6.2 mi North 6.9 mph - N/A   Overcast
4:58 PM 55.2 °F - 38.8 °F 54% 30.17 in 6.2 mi NW 5.8 mph - N/A   Scattered Clouds
5:58 PM 55.4 °F - 39.9 °F 56% 30.19 in 6.2 mi Variable 5.8 mph - N/A   Overcast
6:58 PM 49.1 °F - 42.4 °F 78% 30.21 in 6.2 mi Calm Calm - N/A   Clear
7:58 PM 44.1 °F - 41.5 °F 91% 30.24 in 6.2 mi Calm Calm - N/A   Clear
8:58 PM 39.6 °F 37.4 °F 37.6 °F 93% 30.25 in 6.2 mi East 3.5 mph - N/A   Clear
9:58 PM 41.4 °F - 39.7 °F 94% 30.27 in 6.2 mi Calm Calm - N/A   Clear
10:31 PM 37.4 °F - 35.6 °F 93% 30.24 in - East 2.3 mph - N/A   Clear
10:32 PM 37.4 °F - 35.6 °F 93% 30.24 in 2.5 mi East 2.3 mph - N/A   Clear
10:34 PM 37.4 °F - 35.6 °F 93% 30.24 in - East 2.3 mph - N/A   Clear
10:38 PM 37.4 °F - 35.6 °F 93% 30.24 in 2.5 mi NE 1.2 mph - N/A   Clear
10:41 PM 37.4 °F - 35.6 °F 93% 30.24 in 5.0 mi ENE 1.2 mph - N/A   Clear
10:54 PM 37.4 °F - 35.6 °F 93% 30.24 in - East 2.3 mph - N/A   Clear
10:55 PM 37.4 °F - 35.6 °F 93% 30.24 in - East 2.3 mph - N/A   Clear
10:56 PM 37.4 °F - 35.6 °F 93% 30.24 in - East 2.3 mph - N/A   Clear
10:57 PM 35.6 °F - 33.8 °F 93% 30.24 in - East 2.3 mph - N/A   Clear
10:58 PM 35.6 °F 32.8 °F 33.8 °F 93% 30.27 in - East 3.5 mph - N/A   Clear
10:59 PM 35.6 °F 32.8 °F 33.8 °F 93% 30.24 in - East 3.5 mph - N/A   Clear
11:00 PM 35.6 °F 32.8 °F 33.8 °F 93% 30.24 in - East 3.5 mph - N/A   Clear
11:01 PM 35.6 °F 32.8 °F 32.0 °F 87% 30.24 in - East 3.5 mph - N/A   Clear
11:02 PM 35.6 °F 32.8 °F 32.0 °F 87% 30.24 in 3.7 mi East 3.5 mph - N/A   Clear
11:58 PM 35.1 °F - 33.3 °F 93% 30.28 in 6.2 mi Calm Calm - N/A   Clear